Karlstad current weather conditions

sailwx.info

Wind from 350 at 12 knots

Air temperature 2.0° C
Visibility: greater than 5.4 NM
Dewpoint -0.0° C

Last reported at 2018-Dec-10 21:50 UTC.
Time now 2018-Dec-10 23:01 UTC

Location: N 59°27' E 013°20'.
View on Google Maps.

See reports from other nearby stations

  
Tides and Currents Weather Stations Pressure Air Temp Water Temp Dewpoint Dewpoint Depression Visibility Wind Speed Wind Dir Waves Ship Positions
date/time (UTC)wind fromknots sea level pressurealtimeterstation pressurevisibilityair tempwater tempwave heightnotes
2018-Dec-10 21:50 350 12 5.4 2.0
2018-Dec-10 21:20 350 15 5.4 2.0
2018-Dec-10 20:50 350 13 5.4 2.0
2018-Dec-10 20:20 350 13 5.4 2.0
2018-Dec-10 19:50 350 13 5.4 2.0
2018-Dec-10 19:20 340 13 5.4 2.0
2018-Dec-10 18:50 340 12 5.4 1.0
2018-Dec-10 18:20 340 12 5.4 2.0
2018-Dec-10 17:50 350 14 5.4 2.0
2018-Dec-10 17:20 340 15 5.4 2.0 Light drizzle.
2018-Dec-10 16:50 340 14 5.4 1.0 Light drizzle snow.
2018-Dec-10 16:20 340 15 5.4 1.0 Light rain.
2018-Dec-10 15:50 340 14 5.4 1.0 Light rain.
2018-Dec-10 15:20 340 13 5.4 2.0 Light rain.
2018-Dec-10 14:50 330 9 4.3 1.0 Light drizzle snow.
2018-Dec-10 14:20 330 9 3.8 1.0 Light drizzle snow.
2018-Dec-10 13:50 330 11 3.8 1.0 Light drizzle snow.
2018-Dec-10 13:20 330 9 5.4 1.0 Light rain.
2018-Dec-10 12:50 330 11 5.4 1.0 Light drizzle snow.
2018-Dec-10 12:20 320 8 5.4 2.0 Light snow.
2018-Dec-10 11:50 310 8 5.4 2.0
2018-Dec-10 11:20 320 6 5.4 2.0
2018-Dec-10 10:50 320 6 5.4 1.0
2018-Dec-10 10:20 310 6 5.4 1.0
2018-Dec-10 09:50 310 6 5.4-0.0
2018-Dec-10 09:20 300 6 5.4 1.0
2018-Dec-10 08:50 300 6 5.4 1.0
2018-Dec-10 08:20 300 6 5.4 1.0
2018-Dec-10 07:50 300 6 5.4 1.0
2018-Dec-10 07:20 300 7 5.4 1.0
2018-Dec-10 06:50 300 6 5.4-0.0
2018-Dec-10 06:20 300 6 5.4-0.0
2018-Dec-10 05:50 290 7 4.9-0.0 Snow.
2018-Dec-10 05:20 290 6 5.4-0.0 Light snow.
2018-Dec-10 04:50 290 6 5.4-0.0
2018-Dec-10 04:20 290 6 5.4-0.0
2018-Dec-10 03:50 290 6 5.4-0.0
2018-Dec-10 03:20 280 9 5.4-0.0
2018-Dec-10 02:50 280 11 5.4-0.0
2018-Dec-10 02:20 280 9 5.4-0.0
2018-Dec-10 01:50 290 8 5.4-0.0
2018-Dec-10 01:20 290 9 5.4-0.0
2018-Dec-10 00:50 290 8 5.4-0.0
2018-Dec-10 00:20 290 8 5.4-1.0
2018-Dec-09 23:50 280 7 5.4-1.0
2018-Dec-09 23:20 300 6 5.4-1.0
2018-Dec-09 22:50 280 5 5.4-1.0
2018-Dec-09 22:20 290 5 5.4-1.0
2018-Dec-09 21:50 280 5 5.4-1.0
2018-Dec-09 21:20 280 6 5.4-1.0
2018-Dec-09 20:50 290 6 5.4-1.0
2018-Dec-09 20:20 290 6 5.4-1.0
2018-Dec-09 19:50 290 6 5.4-1.0
2018-Dec-09 19:20 290 5 5.4-2.0
2018-Dec-09 18:50 280 4 5.4-2.0
2018-Dec-09 18:20 290 4 5.4-2.0
2018-Dec-09 17:50 290 4 5.4-2.0
2018-Dec-09 17:20 300 5 5.4-1.0
2018-Dec-09 16:50 290 6 5.4-2.0
2018-Dec-09 16:20 280 4 5.4-2.0
2018-Dec-09 15:50 310 5 5.4-1.0
2018-Dec-09 15:20 290 4 5.4-1.0
2018-Dec-09 14:50 300 6 5.4-1.0
2018-Dec-09 14:20 310 5 5.4-1.0
2018-Dec-09 13:50 300 6 5.4-1.0
2018-Dec-09 13:20 300 6 5.4-0.0
2018-Dec-09 12:50 290 6 5.4-0.0
2018-Dec-09 12:20 290 7 5.4-0.0
2018-Dec-09 11:50 290 5 5.4-0.0
2018-Dec-09 11:20 290 6 5.4-0.0
2018-Dec-09 10:50 290 6 5.4-0.0
2018-Dec-09 10:20 280 5 5.4-0.0
2018-Dec-09 09:50 260 5 5.4-0.0
2018-Dec-09 09:20 280 6 5.4-0.0
2018-Dec-09 08:50 280 6 5.4 1.0
2018-Dec-09 08:20 290 6 5.4 1.0
2018-Dec-09 07:50 280 6 5.4 1.0
2018-Dec-09 07:20 270 4 5.4 1.0 Light rain.
2018-Dec-09 06:50 290 4 4.3 1.0
2018-Dec-09 06:20 310 4 5.4 1.0
2018-Dec-09 05:50 310 5 3.8 1.0
2018-Dec-09 05:20 310 5 5.4 1.0
2018-Dec-09 04:50 290 4 1.1 1.0 Mist.
2018-Dec-09 04:20 320 6 0.8 1.0 Light rain.
2018-Dec-09 03:50 320 6 1.3 1.0
2018-Dec-09 03:20 330 6 0.5 1.0
2018-Dec-09 02:50 340 6 0.2 1.0 Fog.
2018-Dec-09 02:20 340 6 0.2 1.0 Fog.
2018-Dec-09 01:50 350 6 0.8 1.0 Mist.
2018-Dec-09 01:20 350 6 2.3 1.0 Mist.
2018-Dec-09 00:50 360 4 2.7 1.0
2018-Dec-09 00:20 360 2 0.8 1.0 Drizzle.
2018-Dec-08 23:50 360 4 0.2 1.0 Fog.
2018-Dec-08 23:20 350 4 0.2 2.0 Fog.